Time,TemperatureF,DewpointF,PressureIn,WindDirection,WindDirectionDegrees,WindSpeedMPH,WindSpeedGustMPH,Humidity,HourlyPrecipIn,Conditions,Clouds,dailyrainin,SoftwareType,DateUTC
2013-08-16 00:08:00,52.2,51.0,30.10,South,174,0.0,0.0,94,0.00,,,0.00,weatherlink.com 1.10,2013-08-16 04:08:00,
2013-08-16 00:23:00,52.0,51.0,30.10,South,174,0.0,0.0,95,0.00,,,0.00,weatherlink.com 1.10,2013-08-16 04:23:00,
2013-08-16 00:38:00,51.9,51.0,30.10,South,174,0.0,0.0,95,0.00,,,0.00,weatherlink.com 1.10,2013-08-16 04:38:00,
2013-08-16 00:53:00,51.5,50.0,30.09,South,174,0.0,0.0,95,0.00,,,0.00,weatherlink.com 1.10,2013-08-16 04:53:00,
2013-08-16 01:08:00,51.4,50.0,30.09,South,174,0.0,0.0,95,0.00,,,0.00,weatherlink.com 1.10,2013-08-16 05:08:00,
2013-08-16 01:23:00,51.2,50.0,30.10,South,174,0.0,0.0,95,0.00,,,0.00,weatherlink.com 1.10,2013-08-16 05:23:00,
2013-08-16 01:38:00,50.8,50.0,30.10,South,174,0.0,0.0,95,0.00,,,0.00,weatherlink.com 1.10,2013-08-16 05:38:00,
2013-08-16 01:53:00,50.6,50.0,30.09,South,174,0.0,0.0,96,0.00,,,0.00,weatherlink.com 1.10,2013-08-16 05:53:00,
2013-08-16 02:08:00,50.4,49.0,30.09,South,174,0.0,0.0,96,0.00,,,0.00,weatherlink.com 1.10,2013-08-16 06:08:00,
2013-08-16 02:23:00,50.5,49.0,30.09,South,174,0.0,0.0,96,0.00,,,0.00,weatherlink.com 1.10,2013-08-16 06:23:00,
2013-08-16 02:38:00,50.4,49.0,30.09,South,174,0.0,0.0,96,0.00,,,0.00,weatherlink.com 1.10,2013-08-16 06:38:00,
2013-08-16 02:53:00,50.2,49.0,30.09,South,174,0.0,0.0,96,0.00,,,0.00,weatherlink.com 1.10,2013-08-16 06:53:00,
2013-08-16 03:09:00,50.2,49.0,30.09,South,174,0.0,0.0,96,0.00,,,0.00,weatherlink.com 1.10,2013-08-16 07:09:00,
2013-08-16 03:24:00,49.9,49.0,30.10,South,174,0.0,0.0,96,0.00,,,0.00,weatherlink.com 1.10,2013-08-16 07:24:00,
2013-08-16 03:39:00,49.6,49.0,30.10,South,174,0.0,0.0,96,0.00,,,0.00,weatherlink.com 1.10,2013-08-16 07:39:00,
2013-08-16 03:54:00,49.2,48.0,30.10,South,174,0.0,0.0,96,0.00,,,0.00,weatherlink.com 1.10,2013-08-16 07:54:00,
2013-08-16 04:09:00,49.1,48.0,30.10,South,174,0.0,0.0,97,0.00,,,0.00,weatherlink.com 1.10,2013-08-16 08:09:00,
2013-08-16 04:24:00,48.9,48.0,30.10,South,174,0.0,0.0,97,0.00,,,0.00,weatherlink.com 1.10,2013-08-16 08:24:00,
2013-08-16 04:39:00,48.6,48.0,30.10,South,174,0.0,0.0,97,0.00,,,0.00,weatherlink.com 1.10,2013-08-16 08:39:00,
2013-08-16 04:54:00,48.5,48.0,30.10,South,174,0.0,0.0,97,0.00,,,0.00,weatherlink.com 1.10,2013-08-16 08:54:00,
2013-08-16 05:09:00,48.6,48.0,30.10,South,174,0.0,0.0,97,0.00,,,0.00,weatherlink.com 1.10,2013-08-16 09:09:00,
2013-08-16 05:24:00,49.0,48.0,30.11,South,174,0.0,0.0,97,0.00,,,0.00,weatherlink.com 1.10,2013-08-16 09:24:00,
2013-08-16 05:39:00,49.3,49.0,30.11,South,174,0.0,0.0,97,0.00,,,0.00,weatherlink.com 1.10,2013-08-16 09:39:00,
2013-08-16 05:54:00,49.4,49.0,30.11,South,174,0.0,0.0,97,0.00,,,0.00,weatherlink.com 1.10,2013-08-16 09:54:00,
2013-08-16 06:09:00,49.2,48.0,30.12,South,174,0.0,0.0,97,0.00,,,0.00,weatherlink.com 1.10,2013-08-16 10:09:00,
2013-08-16 06:24:00,49.7,49.0,30.12,South,174,0.0,0.0,98,0.00,,,0.00,weatherlink.com 1.10,2013-08-16 10:24:00,
2013-08-16 06:39:00,50.3,50.0,30.12,South,174,0.0,0.0,98,0.00,,,0.00,weatherlink.com 1.10,2013-08-16 10:39:00,
2013-08-16 06:54:00,50.6,50.0,30.13,South,174,0.0,0.0,97,0.00,,,0.00,weatherlink.com 1.10,2013-08-16 10:54:00,
2013-08-16 07:09:00,51.6,51.0,30.13,SSW,207,0.0,0.0,98,0.00,,,0.00,weatherlink.com 1.10,2013-08-16 11:09:00,
2013-08-16 07:24:00,52.8,52.0,30.13,SW,233,0.0,0.0,97,0.00,,,0.00,weatherlink.com 1.10,2013-08-16 11:24:00,
2013-08-16 07:39:00,53.4,52.0,30.13,SW,233,0.0,0.0,96,0.00,,,0.00,weatherlink.com 1.10,2013-08-16 11:39:00,
2013-08-16 07:54:00,54.4,53.0,30.13,SW,233,0.0,0.0,96,0.00,,,0.00,weatherlink.com 1.10,2013-08-16 11:54:00,
2013-08-16 08:09:00,56.1,55.0,30.13,SW,233,0.0,0.0,95,0.00,,,0.00,weatherlink.com 1.10,2013-08-16 12:09:00,
2013-08-16 08:24:00,58.0,55.0,30.14,WSW,240,1.0,2.0,91,0.00,,,0.00,weatherlink.com 1.10,2013-08-16 12:24:00,
2013-08-16 08:39:00,59.5,57.0,30.13,SW,229,0.0,0.0,90,0.00,,,0.00,weatherlink.com 1.10,2013-08-16 12:39:00,
2013-08-16 08:54:00,61.0,58.0,30.14,WSW,239,0.0,2.0,88,0.00,,,0.00,weatherlink.com 1.10,2013-08-16 12:54:00,
2013-08-16 09:09:00,62.8,58.0,30.14,SW,214,0.0,3.0,83,0.00,,,0.00,weatherlink.com 1.10,2013-08-16 13:09:00,
2013-08-16 09:24:00,63.6,58.0,30.14,SSW,198,0.0,4.0,81,0.00,,,0.00,weatherlink.com 1.10,2013-08-16 13:24:00,
2013-08-16 09:40:00,65.1,59.0,30.14,South,183,0.0,2.0,80,0.00,,,0.00,weatherlink.com 1.10,2013-08-16 13:40:00,
2013-08-16 09:55:00,66.0,58.0,30.14,WNW,287,0.0,0.0,76,0.00,,,0.00,weatherlink.com 1.10,2013-08-16 13:55:00,
2013-08-16 10:10:00,66.9,59.0,30.14,SW,223,0.0,0.0,76,0.00,,,0.00,weatherlink.com 1.10,2013-08-16 14:10:00,
2013-08-16 10:25:00,67.7,60.0,30.14,SW,217,0.0,0.0,76,0.00,,,0.00,weatherlink.com 1.10,2013-08-16 14:25:00,
2013-08-16 10:40:00,68.3,59.0,30.14,NW,316,0.0,4.0,71,0.00,,,0.00,weatherlink.com 1.10,2013-08-16 14:40:00,
2013-08-16 10:55:00,69.2,60.0,30.14,WNW,302,1.0,2.0,73,0.00,,,0.00,weatherlink.com 1.10,2013-08-16 14:55:00,
2013-08-16 11:10:00,68.7,58.0,30.14,NW,311,0.0,3.0,69,0.00,,,0.00,weatherlink.com 1.10,2013-08-16 15:10:00,
2013-08-16 11:25:00,70.7,59.0,30.15,North,358,1.0,4.0,66,0.00,,,0.00,weatherlink.com 1.10,2013-08-16 15:25:00,
2013-08-16 11:40:00,69.6,59.0,30.14,West,264,3.0,5.0,68,0.00,,,0.00,weatherlink.com 1.10,2013-08-16 15:40:00,
2013-08-16 11:55:00,71.3,59.0,30.14,North,4,0.0,5.0,65,0.00,,,0.00,weatherlink.com 1.10,2013-08-16 15:55:00,
2013-08-16 12:10:00,70.8,57.0,30.14,West,267,2.0,4.0,62,0.00,,,0.00,weatherlink.com 1.10,2013-08-16 16:10:00,
2013-08-16 12:25:00,72.3,59.0,30.14,NNE,12,0.0,5.0,64,0.00,,,0.00,weatherlink.com 1.10,2013-08-16 16:25:00,
2013-08-16 12:40:00,71.3,57.0,30.14,WNW,297,1.0,3.0,62,0.00,,,0.00,weatherlink.com 1.10,2013-08-16 16:40:00,
2013-08-16 12:55:00,71.3,59.0,30.14,NNW,340,1.0,3.0,65,0.00,,,0.00,weatherlink.com 1.10,2013-08-16 16:55:00,
2013-08-16 13:10:00,71.4,59.0,30.14,West,266,2.0,4.0,64,0.00,,,0.00,weatherlink.com 1.10,2013-08-16 17:10:00,
2013-08-16 13:25:00,70.3,58.0,30.14,WNW,289,1.0,5.0,65,0.00,,,0.00,weatherlink.com 1.10,2013-08-16 17:25:00,
2013-08-16 13:40:00,71.3,59.0,30.14,SW,224,1.0,3.0,65,0.00,,,0.00,weatherlink.com 1.10,2013-08-16 17:40:00,
2013-08-16 13:55:00,71.9,58.0,30.14,West,281,3.0,5.0,62,0.00,,,0.00,weatherlink.com 1.10,2013-08-16 17:55:00,
2013-08-16 14:10:00,73.1,58.0,30.14,West,264,2.0,3.0,60,0.00,,,0.00,weatherlink.com 1.10,2013-08-16 18:10:00,
2013-08-16 14:25:00,71.6,58.0,30.14,WSW,251,3.0,6.0,63,0.00,,,0.00,weatherlink.com 1.10,2013-08-16 18:25:00,
2013-08-16 14:40:00,71.9,59.0,30.14,North,9,0.0,2.0,63,0.00,,,0.00,weatherlink.com 1.10,2013-08-16 18:40:00,
2013-08-16 14:55:00,72.1,57.0,30.13,SW,236,1.0,5.0,59,0.00,,,0.00,weatherlink.com 1.10,2013-08-16 18:55:00,
2013-08-16 15:10:00,73.8,58.0,30.13,WSW,239,2.0,3.0,58,0.00,,,0.00,weatherlink.com 1.10,2013-08-16 19:10:00,
2013-08-16 15:25:00,74.7,59.0,30.14,WNW,284,2.0,7.0,58,0.00,,,0.00,weatherlink.com 1.10,2013-08-16 19:25:00,
2013-08-16 15:40:00,74.2,57.0,30.14,WNW,296,2.0,6.0,56,0.00,,,0.00,weatherlink.com 1.10,2013-08-16 19:40:00,
2013-08-16 15:55:00,75.6,58.0,30.13,West,264,1.0,3.0,55,0.00,,,0.00,weatherlink.com 1.10,2013-08-16 19:55:00,
2013-08-16 16:10:00,75.0,58.0,30.13,NE,46,2.0,3.0,55,0.00,,,0.00,weatherlink.com 1.10,2013-08-16 20:10:00,
2013-08-16 16:25:00,75.5,56.0,30.13,NNW,342,0.0,4.0,51,0.00,,,0.00,weatherlink.com 1.10,2013-08-16 20:25:00,
2013-08-16 16:40:00,76.5,57.0,30.13,WNW,298,1.0,2.0,51,0.00,,,0.00,weatherlink.com 1.10,2013-08-16 20:40:00,
2013-08-16 16:55:00,74.7,57.0,30.13,WNW,293,1.0,4.0,54,0.00,,,0.00,weatherlink.com 1.10,2013-08-16 20:55:00,
2013-08-16 17:10:00,76.2,57.0,30.13,West,281,1.0,3.0,51,0.00,,,0.00,weatherlink.com 1.10,2013-08-16 21:10:00,
2013-08-16 17:25:00,76.5,56.0,30.13,WNW,286,1.0,3.0,50,0.00,,,0.00,weatherlink.com 1.10,2013-08-16 21:25:00,
2013-08-16 17:40:00,77.0,56.0,30.13,SW,234,1.0,1.0,49,0.00,,,0.00,weatherlink.com 1.10,2013-08-16 21:40:00,
2013-08-16 17:55:00,77.1,56.0,30.13,WNW,287,1.0,2.0,48,0.00,,,0.00,weatherlink.com 1.10,2013-08-16 21:55:00,
2013-08-16 18:10:00,76.7,56.0,30.13,WNW,288,0.0,2.0,49,0.00,,,0.00,weatherlink.com 1.10,2013-08-16 22:10:00,
2013-08-16 18:25:00,77.2,56.0,30.13,West,266,0.0,3.0,48,0.00,,,0.00,weatherlink.com 1.10,2013-08-16 22:25:00,
2013-08-16 18:40:00,76.2,55.0,30.14,WNW,283,1.0,2.0,48,0.00,,,0.00,weatherlink.com 1.10,2013-08-16 22:40:00,
2013-08-16 18:55:00,75.7,56.0,30.14,SW,231,0.0,3.0,51,0.00,,,0.00,weatherlink.com 1.10,2013-08-16 22:55:00,
2013-08-16 19:10:00,76.4,59.0,30.14,SW,234,0.0,1.0,55,0.00,,,0.00,weatherlink.com 1.10,2013-08-16 23:10:00,
2013-08-16 19:25:00,76.5,62.0,30.14,SW,235,0.0,0.0,61,0.00,,,0.00,weatherlink.com 1.10,2013-08-16 23:25:00,
2013-08-16 19:40:00,71.3,61.0,30.14,SW,235,0.0,1.0,70,0.00,,,0.00,weatherlink.com 1.10,2013-08-16 23:40:00,
2013-08-16 19:55:00,69.2,61.0,30.15,SW,235,0.0,0.0,75,0.00,,,0.00,weatherlink.com 1.10,2013-08-16 23:55:00,
2013-08-16 20:10:00,66.4,60.0,30.15,SW,235,0.0,0.0,79,0.00,,,0.00,weatherlink.com 1.10,2013-08-17 00:10:00,
2013-08-16 20:26:00,64.6,60.0,30.15,SW,235,0.0,0.0,84,0.00,,,0.00,weatherlink.com 1.10,2013-08-17 00:26:00,
2013-08-16 20:41:00,62.8,59.0,30.15,SW,235,0.0,0.0,86,0.00,,,0.00,weatherlink.com 1.10,2013-08-17 00:41:00,
2013-08-16 20:56:00,61.1,58.0,30.16,SW,235,0.0,0.0,89,0.00,,,0.00,weatherlink.com 1.10,2013-08-17 00:56:00,
2013-08-16 21:11:00,60.0,57.0,30.16,SW,235,0.0,0.0,89,0.00,,,0.00,weatherlink.com 1.10,2013-08-17 01:11:00,
2013-08-16 21:26:00,59.0,56.0,30.16,SW,235,0.0,0.0,90,0.00,,,0.00,weatherlink.com 1.10,2013-08-17 01:26:00,
2013-08-16 21:41:00,58.0,56.0,30.17,SW,235,0.0,0.0,92,0.00,,,0.00,weatherlink.com 1.10,2013-08-17 01:41:00,
2013-08-16 21:56:00,57.4,55.0,30.17,SW,235,0.0,0.0,92,0.00,,,0.00,weatherlink.com 1.10,2013-08-17 01:56:00,
2013-08-16 22:11:00,56.9,55.0,30.17,SW,235,0.0,0.0,93,0.00,,,0.00,weatherlink.com 1.10,2013-08-17 02:11:00,
2013-08-16 22:26:00,56.3,55.0,30.17,SW,235,0.0,0.0,94,0.00,,,0.00,weatherlink.com 1.10,2013-08-17 02:26:00,
2013-08-16 22:41:00,55.9,54.0,30.17,SW,235,0.0,0.0,94,0.00,,,0.00,weatherlink.com 1.10,2013-08-17 02:41:00,
2013-08-16 22:56:00,55.5,54.0,30.17,SW,235,0.0,0.0,94,0.00,,,0.00,weatherlink.com 1.10,2013-08-17 02:56:00,
2013-08-16 23:11:00,55.2,54.0,30.18,SW,235,0.0,0.0,94,0.00,,,0.00,weatherlink.com 1.10,2013-08-17 03:11:00,
2013-08-16 23:26:00,55.0,54.0,30.18,SW,235,0.0,0.0,95,0.00,,,0.00,weatherlink.com 1.10,2013-08-17 03:26:00,
2013-08-16 23:41:00,54.5,53.0,30.18,SW,235,0.0,0.0,95,0.00,,,0.00,weatherlink.com 1.10,2013-08-17 03:41:00,
2013-08-16 23:56:00,54.2,53.0,30.18,SW,235,0.0,0.0,95,0.00,,,0.00,weatherlink.com 1.10,2013-08-17 03:56:00,